Find ATEX

NORAD ID: 25615 Int'l Des: 1998-055 Owner: NROC/NRL Country: US operational
LEOCIRCULARPOLAR

Live Position

Loading 3D Globe...

About ATEX

Description loading...

Upcoming Passes

Passes for default location (London). Set your location on the main map for personalized predictions.

Altitude History

Loading altitude history...

Two-Line Element Set

1 25615U 98055C 26104.23786720 .00000236 00000-0 58815-4 0 9996
2 25615 84.9864 45.8568 0009578 64.6772 295.5420 14.47210381364783
Epoch: Apr 14, 2026 • Age: 7 hours

Current Status

Altitude 742.3 km
Velocity 7.49 km/s
Sub-Earth Point 84.72°N, 82.37°E
Launch Date Oct 3, 1998
Age 27.5 years
Type other

Technical Details

Classification Payload
Mass 29.00 kg
Dry Mass 29.00 kg
Total Mass 29.00 kg
Length 0.80 m
Diameter 0.10 m
Span 0.80 m
Shape Box + Tether
Manufacturer NRL
Bus Type ATEX
Phase Status In Orbit
Owner/State NROC/NRL/US

Most Searched